User: anonymous   Login
Location: Unspecified
(0.0000°N, 0.0000°E)
Time: 03:02:28
(UTC+00:00)
Language:

USA 103 - Orbit

View from above orbital plane
View from above orbital plane
View from above satellite
View from above satellite

Ground track
Ground track

The orbit data is extracted from the following two-line orbital elements,

1 23097U 94026A   18295.71300870 0.00000000  00000-0  00000-0 0    06
2 23097  64.0140  91.1997 6730427 260.9839  23.2554  2.00606012    08
Epoch (UTC): 22 October 2018 17:06:43
Eccentricity: 0.6730427
inclination: 64.0140°
perigee height: 2305 km
apogee height: 38052 km
right ascension of ascending node: 91.1997°
argument of perigee: 260.9839°
revolutions per day: 2.00606012
mean anomaly at epoch: 23.2554°
orbit number at epoch: 0

The dashed part of the orbit path shows where the satellite is in the earth's shadow,  

DLR